Location: Estes Park
(40.3770°N, 105.5210°W)
Time: 12:29:26
(UTC-06:00)

Tiangong 2 - Pass Details

Date: 15 October 2017
Orbit: 388 x 392 km, 42.8° (Epoch: 19 October)

Event Time Altitude Azimuth Distance (km) Brightness Sun altitude
Exits shadow 05:08:08 29° 60° (ENE) 739 3.0 -24.5°
Drops below altitude 10° 05:09:57 10° 75° (ENE) 1,415 5.0 -24.2°
Sets 05:12:04 0° 80° (E) 2,271 6.4 -23.8°
